OK1HRA-8 Weather Reports


time (UTC)temp
C
wind
direction
speed
KPH
gust
KPH
rain 1hr
cm
rain 24hr
cm
rain mn
cm
humidity
%
barometer
mb
20260502185630 19 -1 0.0 0.0 0.00 0.00 0.00 2 1001.0
20260502185122 20 -1 0.0 0.0 0.00 0.00 0.00 2 1000.2
20260502184615 20 -1 0.0 0.0 0.00 0.00 0.00 2 1000.8
20260502184108 20 -1 0.0 0.0 0.00 0.00 0.00 2 1000.7
20260502183601 20 -1 0.0 0.0 0.00 0.00 0.00 2 1000.8
20260502183053 20 -1 0.0 0.0 0.00 0.00 0.00 2 1000.6
20260502182545 20 -1 0.0 0.0 0.00 0.00 0.00 2 1000.5
20260502182038 20 -1 8.0 9.7 0.00 0.00 0.00 2 1000.9
20260502181530 20 -1 6.4 12.9 0.00 0.00 0.00 2 1000.7
20260502181022 20 -1 6.4 14.5 0.00 0.00 0.00 2 1000.6
20260502180515 20 -1 6.4 12.9 0.00 0.00 0.00 2 1001.4
20260502170346 22 -1 6.4 11.3 0.00 0.00 0.00 2 1004.1
20260502164315 22 -1 8.0 14.5 0.00 0.00 0.00 2 1003.8
20260502163807 23 -1 8.0 17.7 0.00 0.00 0.00 2 1003.6
20260502163259 23 -1 9.7 22.5 0.00 0.00 0.00 2 1004.3
20260502162752 23 -1 11.3 20.9 0.00 0.00 0.00 2 1002.7
20260502162245 23 -1 11.3 20.9 0.00 0.00 0.00 2 1003.1
20260502161738 23 -1 11.3 19.3 0.00 0.00 0.00 2 1003.2
20260502161231 23 -1 9.7 19.3 0.00 0.00 0.00 2 1004.6
20260502160724 23 -1 11.3 19.3 0.00 0.00 0.00 2 1004.9
20260502160217 23 -1 12.9 24.1 0.00 0.00 0.00 2 1003.9
20260502152118 23 0 12.9 20.9 0.00 0.00 0.00 2 1001.5
20260502151611 23 -1 12.9 24.1 0.00 0.00 0.00 2 1002.4
20260502151103 23 -1 12.9 22.5 0.00 0.00 0.00 2 1002.6
20260502150555 24 -1 8.0 12.9 0.00 0.00 0.00 2 1005.6
20260502130259 22 -1 14.5 20.9 0.00 0.00 0.00 2 1007.7
20260502123721 23 -1 12.9 20.9 0.00 0.00 0.00 2 1007.2
20260502123214 23 0 14.5 22.5 0.00 0.00 0.00 2 1008.0
20260502122707 23 0 11.3 22.5 0.00 0.00 0.00 2 1006.6
20260502122200 22 0 9.7 22.5 0.00 0.00 0.00 2 1007.5
20260502121653 22 -1 8.0 14.5 0.00 0.00 0.00 2 1011.6
20260502121146 22 -1 11.3 20.9 0.00 0.00 0.00 2 1008.3
20260502120639 22 -1 14.5 24.1 0.00 0.00 0.00 2 1010.5
20260502120131 22 -1 11.3 24.1 0.00 0.00 0.00 2 1009.9
20260502115624 22 0 14.5 24.1 0.00 0.00 0.00 2 1007.1
20260502115116 22 -1 9.7 14.5 0.00 0.00 0.00 2 1012.1
20260502114609 22 -1 12.9 20.9 0.00 0.00 0.00 2 1008.4
20260502114101 22 -1 6.4 12.9 0.00 0.00 0.00 2 1010.8
20260502113554 21 -1 12.9 16.1 0.00 0.00 0.00 2 1013.5
20260502113046 21 -1 12.9 24.1 0.00 0.00 0.00 2 1013.4
20260502112538 21 -1 11.3 20.9 0.00 0.00 0.00 2 1009.0
20260502112030 21 -1 16.1 27.4 0.00 0.00 0.00 2 1010.2
20260502111522 21 0 12.9 20.9 0.00 0.00 0.00 2 1007.2
20260502111014 22 -1 11.3 20.9 0.00 0.00 0.00 2 1008.2
20260502110507 21 -1 11.3 22.5 0.00 0.00 0.00 2 1008.0
20260502110000 22 -1 9.7 19.3 0.00 0.00 0.00 2 1010.0
20260502105452 22 -1 16.1 24.1 0.00 0.00 0.00 2 1011.2
20260502104945 21 -1 16.1 29.0 0.00 0.00 0.00 2 1007.3
20260502104438 21 0 8.0 12.9 0.00 0.00 0.00 2 1008.7
20260502103930 21 -1 9.7 16.1 0.00 0.00 0.00 2 1013.8
20260502103422 21 -1 11.3 19.3 0.00 0.00 0.00 2 1013.2
20260502102914 22 -1 9.7 12.9 0.00 0.00 0.00 2 1011.4
20260502102407 21 -1 6.4 8.0 0.00 0.00 0.00 2 1009.9
20260502101859 21 0 12.9 22.5 0.00 0.00 0.00 2 1008.1
20260502101351 20 -1 12.9 22.5 0.00 0.00 0.00 2 1008.2
20260502100844 20 -1 11.3 22.5 0.00 0.00 0.00 2 1008.7
20260502100336 20 -1 9.7 17.7 0.00 0.00 0.00 2 1013.9
20260502091221 18 -1 8.0 14.5 0.00 0.00 0.00 2 1014.3
20260502090713 18 -1 9.7 19.3 0.00 0.00 0.00 3 1014.3
20260502090205 18 180 8.0 17.7 0.00 0.00 0.00 2 1017.1
20260502071426 16 -1 0.0 0.0 0.00 0.00 0.00 3 1014.9
20260502070918 15 -1 0.0 0.0 0.00 0.00 0.00 3 1014.8
20260502070411 15 -1 0.0 0.0 0.00 0.00 0.00 3 1016.9
20260502065904 15 -1 0.0 0.0 0.00 0.00 0.00 4 1015.5
20260502065356 15 -1 0.0 0.0 0.00 0.00 0.00 4 1015.5
20260502064849 15 -1 0.0 0.0 0.00 0.00 0.00 5 1014.5
20260502064342 15 -1 0.0 0.0 0.00 0.00 0.00 4 1016.1
20260502063835 15 -1 0.0 0.0 0.00 0.00 0.00 3 1017.4
20260502063328 15 -1 0.0 0.0 0.00 0.00 0.00 4 1015.4
20260502062821 15 -1 0.0 0.0 0.00 0.00 0.00 4 1015.1
20260502062314 15 -1 0.0 0.0 0.00 0.00 0.00 4 1016.9
20260502061806 15 -1 0.0 0.0 0.00 0.00 0.00 4 1017.8
20260502061259 14 -1 0.0 0.0 0.00 0.00 0.00 4 1018.7
20260502060751 13 -1 0.0 0.0 0.00 0.00 0.00 5 1014.4
20260502060244 13 -1 0.0 0.0 0.00 0.00 0.00 5 1015.4
20260502055736 13 -1 0.0 0.0 0.00 0.00 0.00 5 1017.7
20260502055229 13 -1 0.0 0.0 0.00 0.00 0.00 4 1019.8
20260502054722 13 -1 0.0 0.0 0.00 0.00 0.00 4 1019.9
20260502054215 13 -1 0.0 0.0 0.00 0.00 0.00 4 1019.2
20260502053707 12 -1 0.0 0.0 0.00 0.00 0.00 4 1017.6
20260502053159 12 -1 0.0 0.0 0.00 0.00 0.00 4 1017.5
20260502052652 11 -1 0.0 0.0 0.00 0.00 0.00 4 1016.0
20260502052145 11 -1 0.0 0.0 0.00 0.00 0.00 4 1013.9
20260502051637 10 -1 0.0 0.0 0.00 0.00 0.00 5 1014.1
20260502051129 10 -1 0.0 0.0 0.00 0.00 0.00 5 1010.8
20260502050621 9 -1 0.0 0.0 0.00 0.00 0.00 6 1010.7
20260502050114 9 -1 0.0 0.0 0.00 0.00 0.00 6 1008.8
20260502045607 8 -1 0.0 0.0 0.00 0.00 0.00 6 1009.8
20260502045100 8 -1 8.0 11.3 0.00 0.00 0.00 6 1007.7
20260502044553 8 -1 4.8 6.4 0.00 0.00 0.00 6 1007.4
20260502044046 8 -1 8.0 11.3 0.00 0.00 0.00 6 1006.8
20260502043539 8 -1 6.4 8.0 0.00 0.00 0.00 6 1006.4
20260502043032 8 -1 6.4 9.7 0.00 0.00 0.00 6 1006.4
20260502042524 8 -1 6.4 8.0 0.00 0.00 0.00 6 1006.8
20260502042017 8 -1 0.0 0.0 0.00 0.00 0.00 6 1008.5
20260502041510 8 -1 0.0 0.0 0.00 0.00 0.00 6 1008.9
20260502041002 8 -1 0.0 0.0 0.00 0.00 0.00 6 1008.2
20260502040455 8 -1 8.0 12.9 0.00 0.00 0.00 6 1008.3
20260502035948 8 -1 9.7 12.9 0.00 0.00 0.00 6 1006.7
20260502035441 7 -1 6.4 11.3 0.00 0.00 0.00 7 1006.9
20260502034934 7 -1 8.0 14.5 0.00 0.00 0.00 7 1005.8
20260502034427 7 -1 9.7 12.9 0.00 0.00 0.00 7 1005.9
20260502033920 7 -1 11.3 16.1 0.00 0.00 0.00 7 1005.0
20260502033413 7 -1 8.0 11.3 0.00 0.00 0.00 7 1005.3
20260502032906 8 -1 8.0 11.3 0.00 0.00 0.00 6 1005.3
20260502032359 9 -1 6.4 9.7 0.00 0.00 0.00 6 1006.4
20260502031852 9 -1 0.0 0.0 0.00 0.00 0.00 6 1006.7
20260502031345 10 -1 0.0 0.0 0.00 0.00 0.00 6 1006.6
20260502030838 10 -1 0.0 0.0 0.00 0.00 0.00 6 1007.7
20260502030331 10 -1 6.4 8.0 0.00 0.00 0.00 6 1007.5
20260502025823 10 -1 6.4 9.7 0.00 0.00 0.00 6 1006.7
20260502025315 10 -1 8.0 9.7 0.00 0.00 0.00 6 1006.9
20260502024807 10 -1 6.4 9.7 0.00 0.00 0.00 6 1006.7
20260502024259 10 -1 9.7 11.3 0.00 0.00 0.00 6 1006.4
20260502023751 10 -1 8.0 11.3 0.00 0.00 0.00 6 1006.6
20260502023244 10 -1 8.0 11.3 0.00 0.00 0.00 6 1006.2
20260502022737 10 -1 6.4 9.7 0.00 0.00 0.00 6 1006.7
20260502022230 10 -1 9.7 12.9 0.00 0.00 0.00 6 1006.7
20260502021723 9 -1 8.0 12.9 0.00 0.00 0.00 6 1005.9
20260502021216 9 -1 6.4 9.7 0.00 0.00 0.00 6 1006.3
20260502020709 8 -1 9.7 12.9 0.00 0.00 0.00 6 1005.6
20260502020202 8 -1 9.7 12.9 0.00 0.00 0.00 6 1005.3
20260502015655 8 -1 8.0 11.3 0.00 0.00 0.00 6 1005.8
20260502015148 8 -1 9.7 12.9 0.00 0.00 0.00 6 1005.0
20260502014641 9 -1 8.0 12.9 0.00 0.00 0.00 6 1004.8
20260502014134 10 -1 6.4 9.7 0.00 0.00 0.00 6 1005.9
20260502013627 10 -1 8.0 11.3 0.00 0.00 0.00 6 1006.0
20260502013120 10 -1 0.0 0.0 0.00 0.00 0.00 6 1006.3
20260502012613 10 -1 0.0 0.0 0.00 0.00 0.00 6 1006.0
20260502012106 10 -1 0.0 0.0 0.00 0.00 0.00 6 1005.7
20260502011559 10 -1 0.0 0.0 0.00 0.00 0.00 6 1004.9
20260502011052 10 -1 0.0 0.0 0.00 0.00 0.00 6 1004.8
20260502010545 11 -1 0.0 0.0 0.00 0.00 0.00 5 1007.3
20260502010038 11 -1 0.0 0.0 0.00 0.00 0.00 5 1007.7
20260502005531 11 -1 0.0 0.0 0.00 0.00 0.00 5 1007.9
20260502005024 11 -1 0.0 0.0 0.00 0.00 0.00 5 1007.4
20260502004517 10 -1 0.0 0.0 0.00 0.00 0.00 5 1005.0
20260502004009 11 -1 0.0 0.0 0.00 0.00 0.00 5 1008.4
20260502003502 12 -1 0.0 0.0 0.00 0.00 0.00 4 1010.0
20260502002955 13 -1 0.0 0.0 0.00 0.00 0.00 4 1009.6
20260502002448 13 -1 0.0 0.0 0.00 0.00 0.00 4 1009.4
20260502001940 12 -1 0.0 0.0 0.00 0.00 0.00 4 1012.1
20260502001433 12 -1 0.0 0.0 0.00 0.00 0.00 4 1008.1
20260502000925 12 -1 0.0 0.0 0.00 0.00 0.00 4 1008.2
20260502000418 12 -1 0.0 0.0 0.00 0.00 0.00 4 1009.1
20260501235911 12 -1 0.0 0.0 0.00 0.00 0.00 4 1010.2
20260501235403 12 -1 0.0 0.0 0.00 0.00 0.00 4 1009.2
20260501234855 12 -1 0.0 0.0 0.00 0.00 0.00 4 1009.3
20260501234348 12 -1 0.0 0.0 0.00 0.00 0.00 4 1009.1
20260501233841 13 -1 0.0 0.0 0.00 0.00 0.00 4 1010.7
20260501233334 13 -1 0.0 0.0 0.00 0.00 0.00 4 1008.8
20260501232827 13 -1 0.0 0.0 0.00 0.00 0.00 5 1007.9
20260501232319 13 -1 0.0 0.0 0.00 0.00 0.00 5 1007.4
20260501231812 13 -1 0.0 0.0 0.00 0.00 0.00 5 1007.9
20260501231304 12 -1 0.0 0.0 0.00 0.00 0.00 5 1007.9
20260501230756 12 -1 0.0 0.0 0.00 0.00 0.00 4 1009.4
20260501230248 12 -1 0.0 0.0 0.00 0.00 0.00 5 1007.3
20260501225741 13 -1 0.0 0.0 0.00 0.00 0.00 4 1009.5
20260501225234 13 -1 0.0 0.0 0.00 0.00 0.00 4 1009.6
20260501224727 13 -1 0.0 0.0 0.00 0.00 0.00 4 1009.4
20260501224219 14 -1 0.0 0.0 0.00 0.00 0.00 4 1009.0
20260501223712 15 -1 0.0 0.0 0.00 0.00 0.00 4 1010.0
20260501223205 15 -1 0.0 0.0 0.00 0.00 0.00 4 1009.4
20260501222658 14 -1 0.0 0.0 0.00 0.00 0.00 4 1008.4
20260501222150 13 -1 0.0 0.0 0.00 0.00 0.00 4 1008.5
20260501221643 13 -1 0.0 0.0 0.00 0.00 0.00 5 1007.9
20260501221135 12 -1 0.0 0.0 0.00 0.00 0.00 5 1007.2
20260501220627 13 -1 0.0 0.0 0.00 0.00 0.00 4 1010.3
20260501220120 13 -1 0.0 0.0 0.00 0.00 0.00 4 1010.8
20260501215613 13 -1 0.0 0.0 0.00 0.00 0.00 4 1011.3
20260501215106 13 -1 0.0 0.0 0.00 0.00 0.00 4 1010.0
20260501214559 13 -1 0.0 0.0 0.00 0.00 0.00 4 1010.6
20260501214052 12 -1 0.0 0.0 0.00 0.00 0.00 4 1009.3
20260501213544 13 -1 0.0 0.0 0.00 0.00 0.00 4 1009.5
20260501213036 13 -1 0.0 0.0 0.00 0.00 0.00 4 1009.2
20260501212528 13 -1 0.0 0.0 0.00 0.00 0.00 4 1010.7
20260501212021 13 -1 0.0 0.0 0.00 0.00 0.00 4 1009.8
20260501211514 13 -1 0.0 0.0 0.00 0.00 0.00 4 1009.6
20260501211007 13 -1 0.0 0.0 0.00 0.00 0.00 4 1009.2
20260501210500 14 -1 0.0 0.0 0.00 0.00 0.00 4 1009.3
20260501205953 14 -1 0.0 0.0 0.00 0.00 0.00 4 1010.7
20260501205446 13 -1 0.0 0.0 0.00 0.00 0.00 4 1010.4
20260501204938 14 -1 0.0 0.0 0.00 0.00 0.00 4 1009.5
20260501204431 15 -1 0.0 0.0 0.00 0.00 0.00 4 1009.6
20260501203924 15 -1 0.0 0.0 0.00 0.00 0.00 4 1010.5
20260501203417 15 -1 0.0 0.0 0.00 0.00 0.00 3 1010.8
20260501202910 15 -1 0.0 0.0 0.00 0.00 0.00 3 1011.3
20260501202402 15 -1 0.0 0.0 0.00 0.00 0.00 3 1011.9
20260501201855 15 -1 0.0 0.0 0.00 0.00 0.00 3 1011.4
20260501201347 15 -1 0.0 0.0 0.00 0.00 0.00 3 1011.8
20260501200840 15 -1 0.0 0.0 0.00 0.00 0.00 3 1011.4
20260501200332 15 -1 0.0 0.0 0.00 0.00 0.00 3 1010.9
20260501195824 15 -1 0.0 0.0 0.00 0.00 0.00 3 1010.8
20260501195317 15 -1 0.0 0.0 0.00 0.00 0.00 3 1011.2
20260501194809 16 -1 0.0 0.0 0.00 0.00 0.00 3 1011.8
20260501194302 16 -1 0.0 0.0 0.00 0.00 0.00 3 1011.7
20260501193754 16 -1 0.0 0.0 0.00 0.00 0.00 3 1011.7
20260501193247 16 -1 0.0 0.0 0.00 0.00 0.00 3 1012.2
20260501192740 16 -1 0.0 0.0 0.00 0.00 0.00 3 1011.9
20260501192232 16 -1 0.0 0.0 0.00 0.00 0.00 3 1012.2
20260501191724 16 -1 0.0 0.0 0.00 0.00 0.00 3 1012.2
20260501191217 16 -1 0.0 0.0 0.00 0.00 0.00 3 1011.1
20260501190710 16 -1 0.0 0.0 0.00 0.00 0.00 3 1011.5
20260501190202 16 -1 0.0 0.0 0.00 0.00 0.00 3 1011.6